This is the latest recevied weather packets stored in our database for station/object YS1AHL-25. If no packets are shown the sender has not sent any weather packets the latest 1 day(s).
| Time | Temp. | Humidity | Pressure | Rain* | Wind** | Luminosity | Snow |
|---|---|---|---|---|---|---|---|
| 1778099846 | 6.67° C | 97% | 1008 hPa | 0 mm | - | - | - |
| 1778098044 | 6.67° C | 93% | 1008 hPa | 0 mm | - | - | - |
| 1778097443 | 6.67° C | 93% | 1008 hPa | 0 mm | - | - | - |
| 1778096242 | 6.67° C | 93% | 1008 hPa | 0.76 mm | - | - | - |
| 1778093239 | 6.67° C | 93% | 1009 hPa | 0.76 mm | - | - | - |
| 1778092578 | 6.67° C | 93% | 1009 hPa | 0.76 mm | - | - | - |
| 1778091437 | 6.67° C | 94% | 1009 hPa | 1.02 mm | - | - | - |
| 1778089635 | 6.67° C | 95% | 1009 hPa | 0.51 mm | - | - | - |
| 1778089034 | 6.67° C | 95% | 1009 hPa | 0.51 mm | - | - | - |
| 1778088974 | 6.67° C | 95% | 1009 hPa | 0.51 mm | - | - | - |
| 1778088373 | 6.67° C | 95% | 1009 hPa | 1.02 mm | - | - | - |
| 1778087232 | 6.67° C | 95% | 1009 hPa | 0.76 mm | - | - | - |
| 1778086571 | 6.67° C | 94% | 1009 hPa | 0.76 mm | - | - | - |
| 1778086031 | 6.67° C | 93% | 1009 hPa | 0.51 mm | - | - | - |
| 1778081826 | 6.67° C | 95% | 1009 hPa | 0.25 mm | - | - | - |
| 1778081766 | 6.67° C | 95% | 1009 hPa | 0.25 mm | - | - | - |
| 1778081165 | 6.67° C | 95% | 1010 hPa | 0.25 mm | - | - | - |
| 1778080024 | 6.67° C | 95% | 1010 hPa | 0.25 mm | - | - | - |
| 1778079363 | 6.67° C | 95% | 1010 hPa | 0.25 mm | - | - | - |
| 1778078823 | 6.67° C | 94% | 1010 hPa | 0.25 mm | - | - | - |
| 1778078222 | 6.67° C | 95% | 1010 hPa | 0.51 mm | - | - | - |
| 1778077561 | 6.67° C | 94% | 1010 hPa | 0.51 mm | - | - | - |
| 1778076420 | 7.78° C | 89% | 1010 hPa | 0.51 mm | - | - | - |
| 1778075819 | 7.78° C | 89% | 1010 hPa | 0.51 mm | - | - | - |
| 1778075759 | 7.78° C | 89% | 1010 hPa | 0.51 mm | - | - | - |
* Rain latest hour (hover to see other rain measurements)
** Current wind speed in m/s (hover to see current wind gust speed)